Location: Lecco
(45.8566°N, 9.3977°E)
Time: 04:57:14
(UTC+02:00)

Transit 4A - Pass Details

Date: 22 August 2020
Orbit: 863 x 982 km, 66.8° (Epoch: 23 September)

Event Time Altitude Azimuth Distance (km) Brightness Sun altitude
Rises 09:17:10 0° 243° (WSW) 3,516 10.5 27.7°
Reaches altitude 10° 09:19:53 10° 253° (WSW) 2,597 9.9 28.1°
Maximum altitude 09:25:20 34° 317° (NW) 1,490 8.9 29.0°
Drops below altitude 10° 09:30:58 10° 21° (NNE) 2,684 10.5 30.0°
Sets 09:33:50 0° 31° (NNE) 3,650 11.2 30.5°
